Regional Weather Roundup
Issued by NWS Albany, NY

Home | Current Version | Previous Version | Graphics & Text | Print | Product List | Glossary On
Versions: 1 2 3 4 5 6 7 8 9 10 11 12 13 14 15 16 17 18 19 20 21 22 23 24 25 26 27 28 29 30 31 32 33 34 35 36 37 38 39 40 41 42 43 44 45 46 47 48 49 50
197
ASUS41 KALY 190110
RWRALY

NEW YORK STATE HOURLY WEATHER ROUNDUP
NATIONAL WEATHER SERVICE ALBANY NY
800 PM EST WED JAN 18 2017

NOTE: "FAIR" INDICATES FEW OR NO CLOUDS BELOW 12,000 FEET WITH NO
SIGNIFICANT WEATHER AND/OR NO OBSTRUCTIONS TO VISIBILITY.

NYZ032-033-038>043-046>054-057>066-NYZ062>081-082-084-190200-
EAST


CITY           SKY/WX    TMP DP  RH WIND       PRES   REMARKS
ALBANY         DRZL/FOG  37  34  89 S5        30.03F VSB 1   WCI  33
GLENS FALLS    CLOUDY    35  32  88 S6        30.00F FOG     WCI  30
POUGHKEEPSIE   CLOUDY    36  36 100 CALM      30.03F FOG
NEWBURGH       CLOUDY    37  37 100 CALM      30.04F
MONTGOMERY     CLOUDY    36  34  92 CALM      30.01F
WHITE PLAINS   MOCLDY    39  36  89 N6        30.01F WCI  35
ISLIP          CLOUDY    39  37  92 N10       30.03R WCI  32
NEW YORK CITY  CLOUDY    42  37  82 N7        30.03F
CENTRAL PARK   CLOUDY    40  36  86 NE3       30.05F
$$

NYZ005>009-017-018-044>046-055-056-190200-
CENTRAL


CITY           SKY/WX    TMP DP  RH WIND       PRES   REMARKS
FULTON         CLOUDY    37  36  96 SW5       29.99F FOG     WCI  33
SYRACUSE       DRIZZLE   36  36 100 SW7       30.01S FOG     WCI  30
ROME           CLOUDY    35  35 100 W5        30.02S WCI  31
ELMIRA         CLOUDY    37  34  89 SW5       30.00F WCI  33
BINGHAMTON     CLOUDY    34  34 100 W3        29.98R FOG
MONTICELLO     CLOUDY    34  32  93 CALM      29.99F
$$

NYZ026>034-041>043-087-190200-
NORTH


CITY           SKY/WX    TMP DP  RH WIND       PRES   REMARKS
WATERTOWN      CLOUDY    34  34 100 SW6       29.98S FOG     WCI  29
FORT DRUM      NOT AVBL
OGDENSBURG     CLOUDY    33  33  99 SW5       29.96F FOG     WCI  29
MASSENA        CLOUDY    32  31  96 SW5       29.97F WCI  27
SARANAC LAKE   CLOUDY    33  30  88 SW8       29.89R WCI  26
PLATTSBURGH    CLOUDY    35  33  92 S5        29.95R WCI  31
$$

NYZ001>004-010>016-019>021-085-190200-
WEST


CITY           SKY/WX    TMP DP  RH WIND       PRES   REMARKS
NIAGARA FALLS  CLOUDY    37  34  89 SW12      30.01R FOG     WCI  29
BUFFALO        DRIZZLE   35  34  96 SW17G26   30.02R FOG     WCI  25
DUNKIRK        CLOUDY    36  35  96 SW14      30.05S WCI  27
JAMESTOWN      CLOUDY    34  30  86 SW13      30.00F WCI  25
WELLSVILLE     CLOUDY    35  32  88 W7        29.99F WCI  29
ROCHESTER      CLOUDY    38  35  89 W8        30.00F WCI  32
PENN YAN       CLOUDY    37  31  78 SW3       30.00F
$$

             KEY
       WCI = WIND CHILL INDEX
       VSB = VISIBILITY
       HX  = HEAT INDEX
$$




USA.gov is the U.S. government's official web portal to all federal, state and local government web resources and services.